Location: ????????
(55.6189°N, 38.3031°E)
Time: 00:12:47
(UTC+00:00)

NOSS 3-4 (A) - Pass Details

Date: 15 November 2019
Orbit: 907 x 1306 km, 63.4° (Epoch: 02 December)

Event Time Altitude Azimuth Distance (km) Brightness Sun altitude
Exits shadow 00:44:59 50° 20° (NNE) 1,346 4.3 -35.4°
Drops below altitude 10° 00:51:51 10° 91° (E) 3,044 6.8 -34.5°
Sets 00:54:49 0° 97° (E) 4,065 7.6 -34.1°
